ACA1070 KDFW-CYUL

Flight info

Callsign ACA1070
Flight time 2h 37m
Altitude 37000
Route AKUNA9 MLC DCT RZC DCT STL DCT BVT DCT CRL DCT YXU DCT SIKBO Q951 SANIN DCT MIGLO HABBS7
Aircraft B38M/M-SDE1FGHILORVWXY/HB1

Departure

Time 2026-05-06 21:24
Airport Dallas Fort Worth International Airport (KDFW)

Arrival

Time 2026-05-07 00:02
Airport Montreal / Pierre Elliott Trudeau International Airport (CYUL)
Time Latitude Longitude Altitude Speed Heading
2026-05-06 18:41 32.89328 -97.03844 587 ft 0 kts 169°
2026-05-06 21:08 32.89329 -97.03844 606 ft 1 kts 169°
2026-05-06 21:09 32.89349 -97.03849 587 ft 3 kts 169°
2026-05-06 21:09 32.89368 -97.03853 587 ft 3 kts 164°
2026-05-06 21:09 32.89388 -97.03864 588 ft 3 kts 140°
2026-05-06 21:09 32.89401 -97.03883 589 ft 2 kts 113°
2026-05-06 21:10 32.89401 -97.03868 589 ft 3 kts 74°
2026-05-06 21:10 32.89412 -97.03844 589 ft 3 kts 61°
2026-05-06 21:10 32.89420 -97.03819 589 ft 3 kts 75°
2026-05-06 21:10 32.89422 -97.03792 589 ft 3 kts 90°
2026-05-06 21:11 32.89422 -97.03770 589 ft 3 kts 91°
2026-05-06 21:11 32.89421 -97.03743 589 ft 3 kts 91°
2026-05-06 21:11 32.89421 -97.03738 589 ft 0 kts 91°
2026-05-06 21:16 32.89421 -97.03735 589 ft 1 kts 91°
2026-05-06 21:16 32.89421 -97.03710 589 ft 5 kts 91°
2026-05-06 21:16 32.89420 -97.03656 589 ft 8 kts 91°
2026-05-06 21:16 32.89419 -97.03582 589 ft 10 kts 90°
2026-05-06 21:17 32.89418 -97.03498 589 ft 9 kts 91°
2026-05-06 21:17 32.89417 -97.03423 589 ft 10 kts 90°
2026-05-06 21:17 32.89417 -97.03355 589 ft 8 kts 90°
2026-05-06 21:17 32.89402 -97.03320 588 ft 6 kts 159°
2026-05-06 21:18 32.89350 -97.03318 587 ft 9 kts 180°
2026-05-06 21:18 32.89276 -97.03318 586 ft 12 kts 180°
2026-05-06 21:18 32.89184 -97.03319 586 ft 14 kts 181°
2026-05-06 21:18 32.89076 -97.03320 585 ft 17 kts 179°
2026-05-06 21:19 32.88953 -97.03321 585 ft 19 kts 180°
2026-05-06 21:19 32.88826 -97.03321 585 ft 17 kts 180°
2026-05-06 21:19 32.88707 -97.03322 585 ft 14 kts 180°
2026-05-06 21:19 32.88602 -97.03322 583 ft 15 kts 180°
2026-05-06 21:20 32.88521 -97.03315 584 ft 12 kts 161°
2026-05-06 21:20 32.88459 -97.03289 579 ft 8 kts 174°
2026-05-06 21:20 32.88401 -97.03288 579 ft 9 kts 180°
2026-05-06 21:20 32.88337 -97.03289 581 ft 10 kts 180°
2026-05-06 21:21 32.88260 -97.03290 579 ft 13 kts 180°
2026-05-06 21:21 32.88163 -97.03290 578 ft 14 kts 180°
2026-05-06 21:21 32.88065 -97.03291 581 ft 13 kts 180°
2026-05-06 21:21 32.88013 -97.03291 580 ft 5 kts 180°
2026-05-06 21:22 32.87983 -97.03269 584 ft 6 kts 119°
2026-05-06 21:22 32.87977 -97.03216 583 ft 7 kts 91°
2026-05-06 21:22 32.87976 -97.03141 583 ft 11 kts 90°
2026-05-06 21:22 32.87976 -97.03060 576 ft 6 kts 91°
2026-05-06 21:23 32.87981 -97.03018 577 ft 4 kts 52°
2026-05-06 21:23 32.88010 -97.03007 576 ft 5 kts
2026-05-06 21:23 32.88147 -97.03007 581 ft 50 kts
2026-05-06 21:23 32.88738 -97.03004 573 ft 116 kts
2026-05-06 21:24 32.89704 -97.02998 583 ft 163 kts
2026-05-06 21:24 32.90905 -97.03024 1074 ft 172 kts 358°
2026-05-06 21:24 32.92100 -97.03074 1798 ft 174 kts
2026-05-06 21:24 32.93309 -97.03044 2547 ft 175 kts
2026-05-06 21:25 32.94539 -97.03004 3259 ft 178 kts
2026-05-06 21:25 32.95812 -97.02956 3849 ft 191 kts
2026-05-06 21:25 32.97240 -97.02907 4241 ft 215 kts 360°
2026-05-06 21:25 32.98807 -97.02850 4624 ft 242 kts 359°
2026-05-06 21:26 33.00550 -97.02785 5218 ft 257 kts 359°
2026-05-06 21:26 33.02367 -97.02715 6047 ft 262 kts 357°
2026-05-06 21:26 33.04215 -97.02644 6824 ft 270 kts 357°
2026-05-06 21:26 33.06118 -97.02569 7611 ft 276 kts 357°
2026-05-06 21:27 33.08068 -97.02300 8236 ft 295 kts 14°
2026-05-06 21:27 33.09997 -97.01303 8893 ft 306 kts 21°
2026-05-06 21:27 33.11955 -97.00248 9687 ft 312 kts 21°
2026-05-06 21:27 33.13959 -96.99169 10350 ft 322 kts 21°
2026-05-06 21:28 33.16058 -96.98037 10771 ft 339 kts 21°
2026-05-06 21:28 33.18251 -96.96853 11291 ft 352 kts 21°
2026-05-06 21:28 33.20492 -96.95643 12022 ft 356 kts 20°
2026-05-06 21:28 33.22769 -96.94411 12723 ft 362 kts 20°
2026-05-06 21:29 33.25080 -96.93160 13449 ft 367 kts 19°
2026-05-06 21:29 33.27428 -96.91890 14142 ft 373 kts 19°
2026-05-06 21:29 33.29810 -96.90600 14765 ft 379 kts 19°
2026-05-06 21:29 33.32231 -96.89288 15403 ft 385 kts 18°
2026-05-06 21:30 33.34657 -96.87973 16021 ft 391 kts 18°
2026-05-06 21:30 33.37188 -96.86599 16637 ft 397 kts 18°
2026-05-06 21:30 33.39720 -96.85224 17245 ft 403 kts 17°
2026-05-06 21:30 33.42258 -96.83845 17819 ft 409 kts 17°
2026-05-06 21:31 33.44862 -96.82400 18374 ft 418 kts 21°
2026-05-06 21:31 33.47435 -96.80725 18922 ft 422 kts 21°
2026-05-06 21:31 33.50023 -96.79050 19515 ft 424 kts 21°
2026-05-06 21:31 33.52635 -96.77373 20091 ft 426 kts 21°
2026-05-06 21:32 33.55263 -96.75691 20626 ft 430 kts 21°
2026-05-06 21:32 33.60580 -96.72288 21707 ft 436 kts 21°
2026-05-06 21:32 33.63270 -96.70565 22241 ft 440 kts 21°
2026-05-06 21:33 33.65979 -96.68829 22765 ft 443 kts 20°
2026-05-06 21:33 33.67788 -96.67669 23104 ft 445 kts 21°
2026-05-06 21:33 33.71425 -96.65334 23776 ft 449 kts 20°
2026-05-06 21:33 33.74199 -96.63553 24186 ft 453 kts 20°
2026-05-06 21:34 33.76991 -96.61758 24547 ft 457 kts 20°
2026-05-06 21:34 33.79813 -96.59944 24963 ft 462 kts 20°
2026-05-06 21:34 33.81696 -96.58731 25200 ft 465 kts 20°
2026-05-06 21:34 33.84559 -96.56888 25602 ft 468 kts 20°
2026-05-06 21:35 33.87443 -96.55029 26032 ft 472 kts 20°
2026-05-06 21:35 33.90350 -96.53153 26411 ft 476 kts 20°
2026-05-06 21:35 33.93279 -96.51262 26802 ft 480 kts 20°
2026-05-06 21:35 33.96233 -96.49354 27182 ft 483 kts 20°
2026-05-06 21:36 33.99203 -96.47434 27545 ft 487 kts 20°
2026-05-06 21:36 34.02203 -96.45492 27890 ft 490 kts 20°
2026-05-06 21:36 34.05226 -96.43534 28280 ft 494 kts 20°
2026-05-06 21:36 34.08182 -96.41335 28592 ft 504 kts 26°
2026-05-06 21:37 34.11109 -96.38976 28937 ft 508 kts 26°
2026-05-06 21:37 34.14053 -96.36586 29280 ft 511 kts 27°
2026-05-06 21:37 34.17014 -96.34173 29612 ft 514 kts 26°
2026-05-06 21:37 34.19984 -96.31751 29930 ft 518 kts 26°
2026-05-06 21:38 34.22949 -96.29331 30222 ft 521 kts 26°
2026-05-06 21:38 34.25960 -96.26871 30479 ft 524 kts 27°
2026-05-06 21:38 34.28990 -96.24393 30772 ft 526 kts 26°
2026-05-06 21:38 34.32025 -96.21909 31120 ft 529 kts 26°
2026-05-06 21:39 34.35083 -96.19404 31385 ft 532 kts 26°
2026-05-06 21:39 34.38149 -96.16889 31650 ft 535 kts 26°
2026-05-06 21:39 34.41236 -96.14355 31924 ft 537 kts 26°
2026-05-06 21:39 34.44337 -96.11808 32185 ft 540 kts 26°
2026-05-06 21:40 34.47452 -96.09247 32455 ft 543 kts 26°
2026-05-06 21:40 34.50585 -96.06668 32688 ft 545 kts 26°
2026-05-06 21:40 34.53728 -96.04079 32955 ft 547 kts 26°
2026-05-06 21:40 34.56887 -96.01475 33220 ft 550 kts 26°
2026-05-06 21:41 34.60063 -95.98855 33537 ft 552 kts 26°
2026-05-06 21:41 34.63251 -95.96221 33724 ft 557 kts 26°
2026-05-06 21:41 34.66458 -95.93569 34006 ft 559 kts 26°
2026-05-06 21:41 34.69681 -95.90902 34224 ft 561 kts 26°
2026-05-06 21:42 34.72873 -95.88258 34457 ft 563 kts 26°
2026-05-06 21:42 34.76112 -95.85573 34704 ft 564 kts 26°
2026-05-06 21:42 34.79362 -95.82875 34941 ft 566 kts 26°
2026-05-06 21:42 34.82612 -95.80176 35164 ft 568 kts 26°
2026-05-06 21:43 34.85738 -95.77157 35455 ft 578 kts 36°
2026-05-06 21:43 34.88687 -95.73828 35714 ft 580 kts 36°
2026-05-06 21:43 34.91634 -95.70457 35910 ft 580 kts 37°
2026-05-06 21:43 34.94564 -95.67065 36197 ft 580 kts 37°
2026-05-06 21:44 34.97481 -95.63671 36462 ft 580 kts 37°
2026-05-06 21:44 35.00391 -95.60281 36694 ft 579 kts 37°
2026-05-06 21:44 35.03304 -95.56884 36963 ft 579 kts 37°
2026-05-06 21:44 35.06215 -95.53486 37079 ft 580 kts 37°
2026-05-06 21:45 35.12033 -95.46683 37030 ft 576 kts 37°
2026-05-06 21:45 35.17836 -95.39884 37027 ft 579 kts 36°
2026-05-06 21:46 35.23648 -95.33061 37044 ft 580 kts 36°
2026-05-06 21:46 35.29457 -95.26227 37037 ft 579 kts 36°
2026-05-06 21:47 35.35267 -95.19375 37034 ft 579 kts 36°
2026-05-06 21:47 35.41036 -95.12561 37090 ft 580 kts 36°
2026-05-06 21:48 35.46850 -95.05677 37040 ft 580 kts 36°
2026-05-06 21:48 35.52665 -94.98778 37034 ft 581 kts 36°
2026-05-06 21:49 35.58472 -94.91873 37041 ft 581 kts 36°
2026-05-06 21:49 35.64277 -94.84956 37042 ft 580 kts 36°
2026-05-06 21:50 35.70079 -94.78029 37061 ft 582 kts 36°
2026-05-06 21:50 35.75843 -94.71131 37063 ft 582 kts 36°
2026-05-06 21:51 35.81649 -94.64169 37051 ft 582 kts 36°
2026-05-06 21:51 35.87451 -94.57197 37055 ft 582 kts 36°
2026-05-06 21:52 35.93248 -94.50215 37060 ft 582 kts 36°
2026-05-06 21:52 35.99028 -94.43238 37067 ft 582 kts 36°
2026-05-06 21:53 36.04814 -94.36240 37054 ft 582 kts 36°
2026-05-06 21:53 36.10593 -94.29235 37065 ft 582 kts 37°
2026-05-06 21:54 36.16375 -94.22213 37061 ft 581 kts 37°
2026-05-06 21:54 36.22123 -94.15219 37051 ft 583 kts 36°
2026-05-06 21:55 36.27733 -94.07906 37094 ft 587 kts 39°
2026-05-06 21:55 36.33313 -94.00525 37074 ft 586 kts 39°
2026-05-06 21:56 36.38897 -93.93142 37080 ft 586 kts 39°
2026-05-06 21:56 36.44477 -93.85748 37150 ft 586 kts 39°
2026-05-06 21:57 36.50058 -93.78335 37052 ft 587 kts 39°
2026-05-06 21:57 36.55638 -93.70908 37085 ft 588 kts 39°
2026-05-06 21:58 36.61212 -93.63471 37054 ft 587 kts 39°
2026-05-06 21:58 36.66747 -93.56070 37049 ft 588 kts 39°
2026-05-06 21:59 36.72326 -93.48592 37063 ft 590 kts 39°
2026-05-06 21:59 36.77907 -93.41095 37048 ft 590 kts 39°
2026-05-06 22:00 36.83502 -93.33562 37052 ft 591 kts 39°
2026-05-06 22:00 36.89082 -93.26030 37061 ft 591 kts 39°
2026-05-06 22:01 36.94673 -93.18469 37062 ft 591 kts 40°
2026-05-06 22:01 37.00247 -93.10911 37071 ft 592 kts 39°
2026-05-06 22:02 37.05792 -93.03375 37075 ft 592 kts 39°
2026-05-06 22:02 37.11374 -92.95771 37071 ft 592 kts 39°
2026-05-06 22:03 37.16959 -92.88147 37069 ft 592 kts 40°
2026-05-06 22:03 37.22525 -92.80529 37090 ft 593 kts 40°
2026-05-06 22:04 37.28095 -92.72887 37068 ft 593 kts 40°
2026-05-06 22:04 37.33626 -92.65283 37064 ft 593 kts 40°
2026-05-06 22:05 37.39188 -92.57616 37075 ft 593 kts 40°
2026-05-06 22:05 37.44739 -92.49947 37074 ft 593 kts 40°
2026-05-06 22:06 37.50300 -92.42246 37070 ft 593 kts 40°
2026-05-06 22:06 37.55848 -92.34544 37062 ft 594 kts 40°
2026-05-06 22:07 37.61408 -92.26808 37043 ft 594 kts 40°
2026-05-06 22:07 37.66950 -92.19077 37047 ft 594 kts 40°
2026-05-06 22:08 37.72452 -92.11384 37065 ft 594 kts 40°
2026-05-06 22:08 37.77986 -92.03627 37045 ft 594 kts 40°
2026-05-06 22:09 37.83514 -91.95860 37052 ft 594 kts 40°
2026-05-06 22:09 37.89042 -91.88077 37069 ft 594 kts 40°
2026-05-06 22:10 37.94550 -91.80300 37120 ft 593 kts 40°
2026-05-06 22:10 38.00062 -91.72499 37069 ft 593 kts 40°
2026-05-06 22:11 38.05531 -91.64741 37079 ft 593 kts 40°
2026-05-06 22:11 38.11025 -91.56928 37074 ft 593 kts 40°
2026-05-06 22:12 38.16515 -91.49102 37073 ft 593 kts 40°
2026-05-06 22:12 38.22001 -91.41261 37095 ft 592 kts 40°
2026-05-06 22:13 38.27471 -91.33425 37087 ft 592 kts 40°
2026-05-06 22:13 38.32941 -91.25569 37086 ft 593 kts 40°
2026-05-06 22:14 38.38406 -91.17701 37088 ft 593 kts 40°
2026-05-06 22:14 38.43868 -91.09818 37068 ft 592 kts 40°
2026-05-06 22:15 38.49288 -91.01976 37069 ft 593 kts 40°
2026-05-06 22:15 38.54733 -90.94079 37073 ft 593 kts 40°
2026-05-06 22:16 38.60190 -90.86144 37065 ft 593 kts 40°
2026-05-06 22:16 38.65632 -90.78215 37128 ft 593 kts 41°
2026-05-06 22:17 38.71054 -90.70296 37058 ft 590 kts 40°
2026-05-06 22:17 38.76468 -90.62370 37069 ft 591 kts 40°
2026-05-06 22:18 38.81844 -90.54480 37065 ft 591 kts 40°
2026-05-06 22:18 38.87065 -90.46287 37057 ft 599 kts 50°
2026-05-06 22:19 38.91735 -90.37409 37065 ft 599 kts 50°
2026-05-06 22:19 38.96373 -90.28515 37080 ft 599 kts 50°
2026-05-06 22:20 39.00986 -90.19643 37061 ft 599 kts 50°
2026-05-06 22:20 39.05611 -90.10724 37073 ft 599 kts 50°
2026-05-06 22:21 39.10232 -90.01786 37073 ft 599 kts 50°
2026-05-06 22:21 39.14837 -89.92856 37085 ft 598 kts 50°
2026-05-06 22:22 39.19425 -89.83934 37065 ft 596 kts 50°
2026-05-06 22:22 39.23230 -89.76517 37068 ft 597 kts 50°
2026-05-06 22:23 39.27806 -89.67573 37066 ft 597 kts 50°
2026-05-06 22:23 39.33115 -89.57165 37067 ft 597 kts 51°
2026-05-06 22:24 39.36938 -89.49648 37114 ft 596 kts 51°
2026-05-06 22:24 39.41475 -89.40705 37065 ft 594 kts 51°
2026-05-06 22:25 39.45979 -89.31803 37073 ft 595 kts 51°
2026-05-06 22:25 39.50501 -89.22838 37055 ft 595 kts 51°
2026-05-06 22:26 39.55020 -89.13855 37072 ft 595 kts 51°
2026-05-06 22:26 39.59533 -89.04860 37093 ft 594 kts 51°
2026-05-06 22:27 39.64022 -88.95884 37061 ft 592 kts 51°
2026-05-06 22:27 39.68510 -88.86889 37045 ft 593 kts 51°
2026-05-06 22:28 39.72984 -88.77891 37061 ft 593 kts 51°
2026-05-06 22:28 39.77454 -88.68880 37048 ft 593 kts 51°
2026-05-06 22:29 39.81884 -88.59921 37076 ft 592 kts 51°
2026-05-06 22:29 39.86333 -88.50900 37051 ft 591 kts 51°
2026-05-06 22:30 39.90770 -88.41877 37047 ft 592 kts 51°
2026-05-06 22:30 39.95202 -88.32838 37054 ft 592 kts 51°
2026-05-06 22:31 39.99625 -88.23791 37052 ft 592 kts 51°
2026-05-06 22:31 40.04041 -88.14732 37082 ft 591 kts 52°
2026-05-06 22:32 40.08433 -88.05697 37019 ft 589 kts 52°
2026-05-06 22:32 40.12824 -87.96636 37044 ft 591 kts 52°
2026-05-06 22:33 40.17212 -87.87558 37052 ft 590 kts 52°
2026-05-06 22:33 40.21562 -87.78531 37051 ft 590 kts 52°
2026-05-06 22:34 40.25928 -87.69442 37043 ft 588 kts 52°
2026-05-06 22:34 40.30271 -87.60378 37066 ft 588 kts 52°
2026-05-06 22:35 40.34611 -87.51293 37043 ft 587 kts 52°
2026-05-06 22:35 40.38942 -87.42200 37044 ft 588 kts 52°
2026-05-06 22:36 40.43270 -87.33091 37034 ft 588 kts 52°
2026-05-06 22:36 40.47595 -87.23964 37024 ft 586 kts 52°
2026-05-06 22:37 40.51853 -87.14953 37022 ft 585 kts 52°
2026-05-06 22:37 40.56071 -87.05781 37022 ft 587 kts 56°
2026-05-06 22:38 40.60120 -86.96446 37024 ft 587 kts 55°
2026-05-06 22:38 40.64191 -86.87116 37027 ft 588 kts 55°
2026-05-06 22:39 40.68262 -86.77761 37014 ft 588 kts 55°
2026-05-06 22:39 40.72323 -86.68401 37017 ft 589 kts 55°
2026-05-06 22:40 40.76386 -86.59005 37010 ft 589 kts 55°
2026-05-06 22:40 40.80435 -86.49616 37008 ft 588 kts 55°
2026-05-06 22:41 40.86492 -86.35510 37068 ft 588 kts 55°
2026-05-06 22:42 40.90514 -86.26111 36995 ft 587 kts 55°
2026-05-06 22:42 40.94507 -86.16749 36982 ft 588 kts 55°
2026-05-06 22:43 40.98528 -86.07291 37012 ft 590 kts 55°
2026-05-06 22:43 41.02543 -85.97817 36998 ft 589 kts 55°
2026-05-06 22:44 41.06550 -85.88336 37075 ft 589 kts 56°
2026-05-06 22:44 41.10528 -85.78889 37002 ft 583 kts 56°
2026-05-06 22:45 41.14475 -85.69489 37006 ft 584 kts 56°
2026-05-06 22:45 41.18420 -85.60062 37000 ft 584 kts 56°
2026-05-06 22:46 41.22354 -85.50632 37001 ft 584 kts 56°
2026-05-06 22:46 41.26260 -85.41243 37042 ft 584 kts 56°
2026-05-06 22:47 41.30169 -85.31812 37002 ft 580 kts 56°
2026-05-06 22:47 41.34070 -85.22375 36995 ft 581 kts 56°
2026-05-06 22:48 41.37957 -85.12938 36989 ft 581 kts 56°
2026-05-06 22:48 41.41836 -85.03493 36973 ft 581 kts 56°
2026-05-06 22:49 41.45695 -84.94067 37070 ft 583 kts 57°
2026-05-06 22:49 41.49551 -84.84615 36995 ft 577 kts 57°
2026-05-06 22:50 41.53381 -84.75199 36997 ft 578 kts 57°
2026-05-06 22:50 41.57213 -84.65749 36971 ft 578 kts 57°
2026-05-06 22:51 41.61048 -84.56260 37007 ft 581 kts 57°
2026-05-06 22:51 41.64880 -84.46747 37063 ft 581 kts 58°
2026-05-06 22:52 41.68677 -84.37291 36990 ft 574 kts 58°
2026-05-06 22:52 41.72452 -84.27858 36950 ft 575 kts 57°
2026-05-06 22:53 41.76232 -84.18384 37000 ft 578 kts 57°
2026-05-06 22:53 41.79988 -84.08941 36986 ft 577 kts 57°
2026-05-06 22:54 41.83758 -83.99430 37040 ft 577 kts 58°
2026-05-06 22:54 41.87500 -83.89957 36975 ft 572 kts 58°
2026-05-06 22:55 41.91218 -83.80519 36991 ft 573 kts 58°
2026-05-06 22:55 41.94943 -83.71039 36974 ft 573 kts 58°
2026-05-06 22:56 41.98659 -83.61550 36980 ft 573 kts 58°
2026-05-06 22:56 42.02340 -83.52121 36989 ft 573 kts 58°
2026-05-06 22:57 42.06227 -83.42834 36990 ft 566 kts 53°
2026-05-06 22:57 42.10308 -83.33746 36977 ft 567 kts 54°
2026-05-06 22:58 42.14356 -83.24599 36983 ft 568 kts 54°
2026-05-06 22:58 42.18391 -83.15450 36958 ft 568 kts 54°
2026-05-06 22:59 42.22422 -83.06284 37018 ft 565 kts 54°
2026-05-06 22:59 42.26405 -82.97201 36976 ft 562 kts 54°
2026-05-06 23:00 42.30364 -82.88142 36975 ft 563 kts 55°
2026-05-06 23:00 42.34337 -82.79025 36994 ft 563 kts 55°
2026-05-06 23:01 42.38308 -82.69884 37026 ft 564 kts 55°
2026-05-06 23:01 42.42255 -82.60770 36961 ft 558 kts 55°
2026-05-06 23:02 42.46177 -82.51687 36965 ft 558 kts 55°
2026-05-06 23:02 42.50086 -82.42604 36973 ft 559 kts 55°
2026-05-06 23:03 42.53999 -82.33488 36983 ft 560 kts 55°
2026-05-06 23:03 42.57912 -82.24338 36975 ft 560 kts 55°
2026-05-06 23:04 42.61820 -82.15173 36978 ft 561 kts 55°
2026-05-06 23:04 42.65718 -82.06001 36987 ft 561 kts 55°
2026-05-06 23:05 42.69611 -81.96816 36986 ft 561 kts 55°
2026-05-06 23:05 42.73496 -81.87619 37022 ft 561 kts 56°
2026-05-06 23:06 42.77334 -81.78506 36987 ft 556 kts 56°
2026-05-06 23:06 42.81173 -81.69360 36992 ft 557 kts 56°
2026-05-06 23:07 42.85010 -81.60192 36984 ft 558 kts 56°
2026-05-06 23:07 42.88856 -81.50971 36987 ft 559 kts 56°
2026-05-06 23:08 42.92694 -81.41739 37018 ft 557 kts 56°
2026-05-06 23:08 42.95855 -81.34121 36978 ft 554 kts 56°
2026-05-06 23:09 42.99647 -81.24957 36967 ft 555 kts 56°
2026-05-06 23:09 43.03424 -81.15747 36977 ft 556 kts 60°
2026-05-06 23:10 43.06730 -81.06169 36985 ft 557 kts 61°
2026-05-06 23:10 43.10080 -80.96627 36992 ft 554 kts 61°
2026-05-06 23:11 43.13416 -80.87136 36963 ft 553 kts 61°
2026-05-06 23:11 43.16745 -80.77631 36975 ft 554 kts 61°
2026-05-06 23:12 43.20049 -80.68165 36966 ft 553 kts 61°
2026-05-06 23:12 43.23362 -80.58642 36966 ft 553 kts 61°
2026-05-06 23:13 43.26662 -80.49122 36964 ft 549 kts 62°
2026-05-06 23:13 43.29932 -80.39654 36963 ft 549 kts 62°
2026-05-06 23:14 43.33201 -80.30159 36963 ft 549 kts 62°
2026-05-06 23:14 43.36458 -80.20666 36959 ft 549 kts 62°
2026-05-06 23:15 43.39692 -80.11206 36952 ft 549 kts 62°
2026-05-06 23:15 43.42932 -80.01693 36967 ft 546 kts 62°
2026-05-06 23:16 43.46147 -79.92224 36963 ft 545 kts 62°
2026-05-06 23:16 43.49350 -79.82756 36962 ft 546 kts 62°
2026-05-06 23:17 43.52553 -79.73256 36954 ft 546 kts 62°
2026-05-06 23:17 43.55746 -79.63752 36956 ft 546 kts 62°
2026-05-06 23:18 43.58891 -79.54356 36961 ft 540 kts 63°
2026-05-06 23:18 43.62034 -79.44943 36956 ft 540 kts 63°
2026-05-06 23:19 43.65150 -79.35487 36948 ft 543 kts 67°
2026-05-06 23:19 43.67518 -79.25554 36963 ft 545 kts 71°
2026-05-06 23:20 43.69815 -79.15582 36952 ft 544 kts 71°
2026-05-06 23:20 43.72069 -79.05729 36922 ft 543 kts 72°
2026-05-06 23:21 43.74338 -78.95768 36948 ft 544 kts 72°
2026-05-06 23:21 43.76602 -78.85784 36932 ft 543 kts 72°
2026-05-06 23:22 43.78859 -78.75787 36938 ft 544 kts 72°
2026-05-06 23:22 43.81104 -78.65793 36919 ft 544 kts 72°
2026-05-06 23:23 43.83340 -78.55793 36944 ft 544 kts 72°
2026-05-06 23:23 43.85567 -78.45788 36962 ft 541 kts 72°
2026-05-06 23:24 43.87767 -78.35860 36936 ft 539 kts 72°
2026-05-06 23:24 43.89960 -78.25910 36932 ft 539 kts 72°
2026-05-06 23:25 43.92144 -78.15964 36927 ft 539 kts 72°
2026-05-06 23:25 43.94305 -78.06072 36924 ft 539 kts 72°
2026-05-06 23:26 43.96474 -77.96094 36926 ft 539 kts 73°
2026-05-06 23:26 43.98628 -77.86143 36930 ft 538 kts 73°
2026-05-06 23:27 44.00768 -77.76206 36920 ft 537 kts 73°
2026-05-06 23:27 44.02903 -77.66247 36913 ft 537 kts 73°
2026-05-06 23:28 44.05025 -77.56309 36901 ft 537 kts 73°
2026-05-06 23:28 44.07150 -77.46348 36916 ft 537 kts 71°
2026-05-06 23:28 44.08636 -77.41629 36891 ft 531 kts 55°
2026-05-06 23:29 44.10621 -77.37310 36926 ft 531 kts 54°
2026-05-06 23:29 44.14567 -77.28673 36919 ft 532 kts 54°
2026-05-06 23:30 44.18579 -77.20004 36897 ft 532 kts 54°
2026-05-06 23:30 44.22582 -77.11338 36920 ft 532 kts 54°
2026-05-06 23:31 44.26581 -77.02653 36953 ft 532 kts 54°
2026-05-06 23:31 44.30568 -76.93972 36913 ft 530 kts 54°
2026-05-06 23:32 44.34540 -76.85297 36912 ft 530 kts 54°
2026-05-06 23:32 44.38510 -76.76600 36904 ft 530 kts 54°
2026-05-06 23:33 44.42471 -76.67895 36938 ft 530 kts 54°
2026-05-06 23:33 44.46414 -76.59204 36904 ft 528 kts 54°
2026-05-06 23:34 44.50327 -76.50555 36907 ft 529 kts 55°
2026-05-06 23:34 44.54259 -76.41835 36897 ft 529 kts 55°
2026-05-06 23:35 44.58186 -76.33102 36915 ft 528 kts 55°
2026-05-06 23:35 44.62098 -76.24381 36896 ft 527 kts 55°
2026-05-06 23:36 44.65316 -76.15133 36912 ft 529 kts 66°
2026-05-06 23:36 44.68162 -76.05547 36733 ft 531 kts 66°
2026-05-06 23:36 44.69563 -76.00786 36295 ft 525 kts 67°
2026-05-06 23:37 44.70884 -75.95982 35452 ft 529 kts 69°
2026-05-06 23:37 44.72178 -75.91104 34569 ft 532 kts 70°
2026-05-06 23:37 44.73458 -75.86323 33933 ft 527 kts 70°
2026-05-06 23:37 44.74736 -75.81550 33419 ft 515 kts 70°
2026-05-06 23:38 44.75983 -75.76889 33036 ft 503 kts 71°
2026-05-06 23:38 44.77200 -75.72330 32590 ft 493 kts 71°
2026-05-06 23:38 44.78392 -75.67855 32061 ft 485 kts 71°
2026-05-06 23:38 44.79565 -75.63445 31516 ft 479 kts 71°
2026-05-06 23:39 44.80727 -75.59068 31028 ft 472 kts 72°
2026-05-06 23:39 44.81863 -75.54780 30561 ft 464 kts 72°
2026-05-06 23:39 44.82983 -75.50550 30095 ft 457 kts 72°
2026-05-06 23:39 44.84106 -75.46399 29544 ft 451 kts 71°
2026-05-06 23:40 44.85278 -75.42306 28990 ft 446 kts 71°
2026-05-06 23:40 44.86417 -75.38292 28551 ft 437 kts 71°
2026-05-06 23:40 44.87530 -75.34350 28152 ft 429 kts 71°
2026-05-06 23:40 44.88623 -75.30470 27719 ft 423 kts 71°
2026-05-06 23:41 44.89699 -75.26645 27293 ft 417 kts 71°
2026-05-06 23:41 44.90758 -75.22871 26870 ft 412 kts 71°
2026-05-06 23:41 44.91793 -75.19178 26464 ft 409 kts 71°
2026-05-06 23:41 44.92838 -75.15446 26053 ft 408 kts 71°
2026-05-06 23:42 44.93881 -75.11715 25640 ft 407 kts 71°
2026-05-06 23:42 44.94917 -75.07998 25231 ft 406 kts 71°
2026-05-06 23:42 44.95951 -75.04289 24823 ft 406 kts 71°
2026-05-06 23:42 44.96986 -75.00568 24415 ft 406 kts 70°
2026-05-06 23:43 44.98014 -74.96867 24025 ft 406 kts 70°
2026-05-06 23:43 44.99235 -74.93247 23491 ft 410 kts 60°
2026-05-06 23:43 45.00655 -74.89746 22924 ft 412 kts 61°
2026-05-06 23:43 45.02061 -74.86223 22428 ft 412 kts 61°
2026-05-06 23:44 45.03471 -74.82682 21912 ft 413 kts 61°
2026-05-06 23:44 45.04882 -74.79136 21396 ft 414 kts 61°
2026-05-06 23:44 45.06278 -74.75623 20882 ft 415 kts 61°
2026-05-06 23:44 45.07695 -74.72052 20354 ft 417 kts 61°
2026-05-06 23:45 45.09116 -74.68468 19828 ft 418 kts 61°
2026-05-06 23:45 45.10539 -74.64873 19375 ft 418 kts 61°
2026-05-06 23:45 45.11991 -74.61303 18870 ft 419 kts 58°
2026-05-06 23:45 45.13537 -74.57802 18368 ft 417 kts 58°
2026-05-06 23:46 45.15061 -74.54316 17810 ft 414 kts 58°
2026-05-06 23:46 45.16566 -74.50859 17261 ft 410 kts 58°
2026-05-06 23:46 45.18054 -74.47428 16755 ft 406 kts 58°
2026-05-06 23:46 45.19526 -74.44030 16239 ft 402 kts 58°
2026-05-06 23:47 45.20979 -74.40675 15706 ft 398 kts 58°
2026-05-06 23:47 45.22415 -74.37358 15336 ft 390 kts 58°
2026-05-06 23:47 45.23827 -74.34095 14910 ft 385 kts 58°
2026-05-06 23:47 45.25200 -74.30917 14476 ft 380 kts 57°
2026-05-06 23:48 45.26573 -74.27735 14037 ft 376 kts 57°
2026-05-06 23:48 45.27933 -74.24581 13585 ft 373 kts 57°
2026-05-06 23:48 45.29280 -74.21448 13078 ft 370 kts 57°
2026-05-06 23:48 45.30611 -74.18355 12622 ft 365 kts 57°
2026-05-06 23:49 45.31924 -74.15297 12199 ft 360 kts 57°
2026-05-06 23:49 45.33221 -74.12275 11776 ft 355 kts 57°
2026-05-06 23:49 45.34498 -74.09297 11364 ft 351 kts 57°
2026-05-06 23:49 45.35769 -74.06355 10940 ft 347 kts 55°
2026-05-06 23:50 45.37375 -74.03857 10488 ft 339 kts 38°
2026-05-06 23:50 45.40833 -73.99432 9730 ft 330 kts 39°
2026-05-06 23:50 45.42526 -73.97237 9295 ft 326 kts 39°
2026-05-06 23:51 45.44191 -73.95073 8902 ft 322 kts 39°
2026-05-06 23:51 45.45827 -73.92943 8511 ft 316 kts 39°
2026-05-06 23:51 45.47417 -73.90871 8084 ft 311 kts 40°
2026-05-06 23:51 45.48993 -73.88814 7723 ft 303 kts 39°
2026-05-06 23:52 45.50531 -73.86806 7383 ft 296 kts 39°
2026-05-06 23:52 45.52029 -73.84851 7049 ft 289 kts 39°
2026-05-06 23:52 45.53493 -73.82936 6708 ft 283 kts 39°
2026-05-06 23:52 45.54927 -73.81058 6377 ft 277 kts 39°
2026-05-06 23:53 45.56331 -73.79220 6039 ft 271 kts 39°
2026-05-06 23:53 45.57704 -73.77420 5695 ft 265 kts 39°
2026-05-06 23:53 45.59050 -73.75656 5384 ft 259 kts 39°
2026-05-06 23:53 45.60364 -73.73931 5047 ft 254 kts 39°
2026-05-06 23:54 45.61658 -73.72232 4720 ft 250 kts 39°
2026-05-06 23:54 45.62933 -73.70557 4421 ft 248 kts 39°
2026-05-06 23:54 45.64199 -73.68892 4119 ft 247 kts 39°
2026-05-06 23:54 45.65457 -73.67235 3928 ft 241 kts 39°
2026-05-06 23:55 45.66662 -73.65650 3863 ft 229 kts 39°
2026-05-06 23:55 45.67423 -73.64647 3851 ft 223 kts 39°
2026-05-06 23:55 45.68386 -73.62904 3840 ft 224 kts 65°
2026-05-06 23:55 45.68566 -73.60777 3821 ft 213 kts 101°
2026-05-06 23:56 45.67907 -73.58946 3746 ft 208 kts 138°
2026-05-06 23:56 45.66247 -73.57717 3579 ft 204 kts 165°
2026-05-06 23:56 45.65339 -73.57309 3483 ft 201 kts 166°
2026-05-06 23:56 45.64000 -73.56845 3307 ft 195 kts 184°
2026-05-06 23:57 45.62680 -73.57070 3153 ft 189 kts 195°
2026-05-06 23:57 45.61391 -73.57435 3019 ft 188 kts 196°
2026-05-06 23:57 45.60202 -73.58103 2956 ft 180 kts 219°
2026-05-06 23:57 45.59287 -73.59181 2998 ft 170 kts 227°
2026-05-06 23:58 45.58414 -73.60334 2820 ft 170 kts 227°
2026-05-06 23:58 45.57571 -73.61445 2607 ft 161 kts 227°
2026-05-06 23:58 45.56762 -73.62512 2428 ft 157 kts 227°
2026-05-06 23:58 45.55963 -73.63563 2223 ft 155 kts 226°
2026-05-06 23:59 45.55183 -73.64588 2037 ft 147 kts 226°
2026-05-06 23:59 45.54446 -73.65559 1836 ft 142 kts 226°
2026-05-06 23:59 45.53725 -73.66507 1637 ft 140 kts 225°
2026-05-06 23:59 45.53013 -73.67441 1452 ft 139 kts 225°
2026-05-07 00:00 45.52311 -73.68363 1245 ft 138 kts 225°
2026-05-07 00:00 45.51601 -73.69296 1048 ft 139 kts 225°
2026-05-07 00:00 45.50892 -73.70229 831 ft 139 kts 224°
2026-05-07 00:00 45.50180 -73.71165 646 ft 139 kts 223°
2026-05-07 00:01 45.49475 -73.72094 455 ft 137 kts 222°
2026-05-07 00:01 45.48772 -73.73014 281 ft 138 kts 223°
2026-05-07 00:01 45.48067 -73.73941 123 ft 134 kts 223°
2026-05-07 00:01 45.47456 -73.74739 114 ft 104 kts 223°
2026-05-07 00:02 45.46999 -73.75337 110 ft 75 kts 223°
2026-05-07 00:02 45.46713 -73.75713 111 ft 48 kts 223°
2026-05-07 00:02 45.46485 -73.76012 107 ft 38 kts 222°
2026-05-07 00:02 45.46354 -73.76184 106 ft 17 kts 223°
2026-05-07 00:03 45.46288 -73.76233 106 ft 10 kts 172°
2026-05-07 00:03 45.46215 -73.76203 106 ft 12 kts 159°
2026-05-07 00:03 45.46137 -73.76159 104 ft 9 kts 150°
2026-05-07 00:03 45.46087 -73.76110 105 ft 9 kts 144°
2026-05-07 00:04 45.46040 -73.76067 107 ft 8 kts 162°
2026-05-07 00:04 45.45980 -73.76060 107 ft 10 kts 178°
2026-05-07 00:04 45.45906 -73.76056 107 ft 10 kts 177°
2026-05-07 00:04 45.45838 -73.76039 107 ft 10 kts 168°
2026-05-07 00:05 45.45773 -73.76017 107 ft 10 kts 155°
2026-05-07 00:05 45.45725 -73.75947 107 ft 10 kts 128°
2026-05-07 00:05 45.45681 -73.75868 107 ft 9 kts 128°
2026-05-07 00:05 45.45641 -73.75803 107 ft 8 kts 146°
2026-05-07 00:06 45.45581 -73.75782 107 ft 10 kts 169°
2026-05-07 00:06 45.45511 -73.75763 107 ft 9 kts 169°
2026-05-07 00:06 45.45445 -73.75744 107 ft 8 kts 169°
2026-05-07 00:06 45.45400 -73.75722 107 ft 6 kts 131°
2026-05-07 00:07 45.45399 -73.75668 107 ft 6 kts 78°
2026-05-07 00:07 45.45410 -73.75593 107 ft 9 kts 78°
2026-05-07 00:07 45.45418 -73.75540 107 ft 3 kts 76°
2026-05-07 00:07 45.45430 -73.75528 106 ft 2 kts 16°
2026-05-07 00:08 45.45453 -73.75531 107 ft 3 kts 348°
2026-05-07 00:08 45.45471 -73.75537 107 ft 3 kts 348°
2026-05-07 00:08 45.45476 -73.75539 107 ft 0 kts 347°